Lapse_Rate
6.4 6.5 6.5 7.4 7.6 7.4 6.2 5.0 4.9 5.1 5.1 5.4 5.3 4.6 3.9 3.8 4.8 5.3 5.1 5.8 5.7 5.6 5.5 5.6 5.8 5.8 5.7 5.6 5.6 5.5 5.5 5.5 5.5
6.6 6.6 7.8 7.9 7.9 5.9 6.3 5.3 4.9 5.1 5.5 5.4 4.8 4.1 3.3 4.6 4.7 4.9 5.2 5.7 5.7 5.7 5.6 5.5 5.5 5.7 5.6 5.6 5.7 5.7 5.6 5.7 5.7
6.8 6.8 6.3 6.8 5.4 4.7 5.3 5.3 5.2 4.8 5.2 5.0 4.4 3.3 3.6 4.1 4.7 4.9 5.4 5.5 5.8 5.8 5.6 5.5 5.6 5.7 5.7 5.7 5.7 5.7 5.7 5.8 6.0
6.5 6.5 6.0 5.1 4.8 4.9 4.6 5.1 5.2 4.9 5.0 4.7 3.9 3.4 3.4 4.9 5.0 4.9 5.5 5.4 5.9 5.8 5.7 5.6 5.7 5.7 5.6 5.6 5.6 5.6 5.6 5.6 5.6
6.3 6.2 5.8 5.3 5.0 4.6 4.5 4.7 4.9 5.0 4.6 4.4 4.2 3.7 3.7 4.9 4.6 5.2 5.6 5.4 6.3 6.0 5.8 5.8 5.7 5.7 5.6 5.5 5.5 5.5 5.6 5.5 5.4
5.7 6.3 5.6 5.3 5.0 4.9 4.6 4.7 4.6 4.4 4.4 4.2 4.2 3.6 5.1 5.1 5.0 5.2 4.6 5.4 6.5 6.3 6.0 5.9 5.9 5.7 5.7 5.5 5.5 5.5 5.5 5.5 5.5
5.8 5.3 5.3 5.2 4.9 4.9 4.8 4.7 4.6 4.1 5.0 5.0 3.6 5.0 5.0 5.2 5.4 5.4 4.6 5.3 6.5 6.4 6.1 6.0 6.0 5.8 5.8 5.7 5.7 5.7 5.7 5.5 5.4
5.9 6.0 5.7 5.4 5.0 5.4 5.2 5.1 5.2 4.3 4.3 4.3 4.8 4.8 4.8 5.4 5.4 5.3 4.7 5.1 6.3 6.6 6.4 6.2 6.1 6.1 5.9 5.9 5.9 6.0 5.8 5.7 5.4
6.1 6.4 5.7 5.7 4.6 5.2 5.1 5.2 4.8 4.4 4.0 4.4 4.6 4.7 4.8 4.7 4.8 5.4 4.7 4.9 6.2 7.0 6.9 6.6 6.4 6.5 6.3 6.3 6.4 6.4 6.2 5.9 5.7
6.0 6.2 6.1 5.2 5.1 4.6 4.2 5.1 5.0 4.8 4.4 4.2 4.5 5.0 5.2 5.0 4.8 5.0 4.4 5.0 5.4 6.4 7.1 7.0 7.0 7.0 6.8 6.8 6.9 6.5 6.3 6.1 5.7
5.8 5.8 5.8 5.3 4.8 4.5 4.2 4.6 5.3 5.4 4.6 5.0 4.7 4.8 4.9 5.3 5.4 5.5 5.7 5.1 5.4 5.7 6.3 7.1 7.3 7.3 7.3 7.3 7.2 7.0 6.8 6.1 6.0
5.1 6.0 6.2 5.7 5.0 4.7 4.7 4.7 4.7 5.6 5.2 5.3 5.3 5.0 5.0 5.1 5.8 5.6 5.8 6.0 5.1 5.8 6.0 6.7 6.9 7.1 7.3 7.2 7.3 6.8 6.2 6.1 6.2
5.7 5.2 4.8 5.4 5.6 4.8 4.2 4.4 4.6 5.7 5.7 5.5 5.4 5.8 5.5 5.6 6.0 6.1 5.9 5.7 6.2 5.8 5.7 5.9 6.2 6.7 6.9 7.0 7.3 6.9 6.0 6.1 6.2
5.8 6.1 5.5 5.7 4.9 4.9 4.5 4.4 6.1 5.5 4.8 5.2 5.6 5.6 5.7 6.2 6.1 6.3 6.2 5.9 5.7 6.0 5.5 5.9 5.9 5.7 6.0 6.6 7.0 7.0 6.6 6.0 6.1
5.6 6.2 6.1 4.4 5.3 4.6 4.0 5.6 4.4 6.3 6.5 6.0 6.1 6.0 5.8 5.8 6.1 6.5 6.5 5.7 4.9 5.1 5.4 5.0 5.7 5.0 5.1 5.6 6.0 6.4 6.5 6.0 6.1
5.1 5.7 6.0 5.4 4.0 4.8 4.7 4.5 5.2 3.8 4.8 6.1 6.7 6.0 6.1 6.2 5.5 6.0 6.1 6.5 5.5 4.9 5.4 5.2 5.2 5.1 4.5 4.6 5.1 5.9 6.2 6.3 6.4
5.8 5.7 6.0 5.8 4.9 5.4 4.8 4.8 5.3 5.9 4.5 5.9 6.4 7.7 7.5 6.5 6.2 6.2 5.4 6.1 4.9 3.8 4.9 4.8 4.7 4.7 5.2 5.4 5.1 5.4 6.0 5.9 6.1
5.6 5.8 6.0 6.5 5.9 5.8 5.1 4.7 6.2 5.7 3.8 5.5 6.9 6.8 7.3 6.0 4.5 4.8 5.4 5.2 4.1 3.7 4.2 4.2 3.9 4.1 4.4 4.2 4.5 4.8 5.2 5.6 6.0
5.7 5.8 6.3 6.5 5.6 5.8 5.2 4.5 5.8 5.9 5.2 3.8 5.6 5.7 5.6 6.0 6.2 3.6 3.2 3.4 3.8 3.8 4.0 4.1 3.8 3.4 3.5 2.9 3.6 3.5 4.0 4.3 5.4
6.6 6.0 6.1 5.8 5.3 5.5 6.0 4.9 5.1 5.1 5.7 4.5 4.4 5.6 5.8 5.4 5.4 5.5 3.4 2.2 2.5 2.6 3.6 4.0 3.7 3.5 2.9 1.8 2.1 2.7 3.4 4.8 5.9
Wind_Speed
15 13 13 17 19 16 14 15 12 10 10 14 14 14 11 10 9 8 9 8 10 10 10 10 9 10 10 10 10 11 11 11 11
15 15 14 15 15 14 13 13 12 10 10 16 15 13 11 8 8 8 8 8 9 9 9 9 9 8 9 9 10 10 10 10 11
14 15 15 14 15 16 14 12 11 11 12 14 13 12 10 9 9 8 7 8 9 8 8 8 7 8 8 8 9 9 9 10 10
15 16 16 15 15 15 14 14 11 10 12 13 13 12 12 8 7 8 7 7 8 8 7 7 6 7 6 6 7 7 8 8 8
17 17 17 16 15 15 14 14 13 11 10 12 12 11 11 7 7 6 6 6 7 7 7 6 6 6 5 5 5 5 6 6 7
20 19 18 17 16 15 14 14 14 13 10 11 12 11 7 7 6 6 7 6 7 7 7 6 6 5 4 4 3 4 4 4 5
19 21 22 18 17 15 14 14 13 13 10 9 8 9 7 7 7 6 9 8 8 8 8 7 7 6 5 5 3 3 3 2 2
16 15 17 17 17 15 15 14 13 12 10 9 7 7 7 7 7 8 10 10 10 10 9 9 8 7 7 7 6 5 5 4 2
14 14 16 16 14 15 15 13 12 11 10 10 10 9 9 8 7 9 13 12 12 11 11 11 10 10 10 9 9 9 8 6 4
14 15 16 14 15 15 12 14 13 12 10 10 10 10 10 10 8 8 14 15 14 13 13 13 11 12 11 12 10 12 12 9 6
11 10 13 14 18 15 14 12 10 9 10 9 11 11 11 10 10 9 10 17 17 15 14 13 12 10 11 8 7 9 10 11 8
13 8 9 14 18 17 13 13 10 7 8 9 10 11 11 11 13 11 11 11 16 19 15 14 13 12 11 10 8 6 12 12 9
15 7 7 14 15 13 9 7 7 8 8 8 7 7 11 12 13 12 12 12 11 14 20 16 14 14 13 11 10 8 14 13 10
15 9 10 11 9 8 8 6 9 9 7 8 8 8 8 9 12 13 13 15 13 12 15 22 20 16 13 12 11 11 15 14 11
16 12 12 10 7 7 7 10 7 7 9 7 8 8 8 8 9 9 13 13 13 14 14 12 15 17 14 12 12 13 18 15 13
16 9 9 10 10 12 13 9 7 6 5 4 8 9 10 11 9 9 8 10 12 12 14 12 10 11 13 14 15 16 17 15 12
15 13 12 14 11 13 11 12 7 6 7 6 4 6 6 9 10 8 7 10 8 8 13 13 11 10 9 11 14 19 17 14 12
19 16 15 15 14 12 14 12 12 8 4 12 5 4 6 2 3 8 8 8 6 5 11 12 11 10 7 10 13 15 14 13 11
21 18 18 17 12 13 11 9 8 8 7 3 9 6 2 3 2 2 4 5 7 8 7 10 11 11 10 10 12 17 15 13 11
17 17 17 15 10 14 13 10 11 9 8 7 2 10 7 4 4 3 3 3 6 6 8 9 11 14 14 12 12 16 14 13 12
Wind_Direction
172 168 160 151 133 136 136 140 141 143 148 148 140 135 125 121 115 113 112 107 109 104 99 91 83 80 79 77 73 70 67 62 58
170 168 174 148 149 151 155 153 149 143 145 146 145 141 139 134 130 130 129 124 119 112 106 100 95 89 83 79 74 70 65 60 55
177 162 164 173 170 162 169 166 161 149 153 149 148 146 145 143 142 142 140 134 128 120 114 108 100 90 85 81 78 72 66 58 51
169 166 165 162 170 174 177 176 173 160 159 158 156 155 155 152 153 154 152 155 140 132 125 117 106 102 98 91 84 79 73 66 59
177 172 170 174 182 184 187 185 179 173 163 167 164 161 157 158 163 170 166 177 154 147 143 136 128 122 116 103 94 87 82 81 70
181 184 182 180 186 193 192 191 183 178 176 174 180 168 173 169 179 189 188 196 177 170 165 159 153 149 148 142 131 118 110 86 70
189 184 185 188 188 195 198 196 190 183 184 187 177 195 190 194 191 202 200 206 198 194 190 187 184 182 187 190 175 166 156 126 88
191 192 190 190 195 199 202 202 203 198 193 190 196 197 199 215 216 215 211 214 214 210 210 210 207 207 213 218 213 208 200 198 213
197 200 192 193 188 201 202 207 207 207 208 206 205 210 214 217 223 228 221 221 226 225 223 226 222 223 226 233 231 222 219 212 233
202 202 201 192 192 196 200 208 207 214 212 216 216 218 229 232 230 230 228 225 228 235 237 240 236 233 234 237 239 235 215 214 208
212 208 203 198 196 198 193 201 212 220 217 223 226 225 227 238 239 237 235 230 230 235 245 248 237 231 238 244 240 253 209 199 196
220 221 214 208 200 193 196 201 205 218 223 233 234 238 234 235 241 237 237 233 234 235 237 244 248 241 245 247 249 257 183 188 194
230 222 224 219 209 195 192 192 196 213 224 234 237 243 246 244 243 242 237 232 232 236 235 237 244 247 249 246 247 232 193 186 185
232 223 219 225 203 199 193 195 203 207 218 234 245 246 245 251 247 241 238 234 232 228 230 231 233 239 239 244 248 239 198 184 184
236 233 227 191 196 203 193 200 201 211 227 237 249 250 247 247 244 245 245 239 232 230 229 227 234 231 231 239 242 233 186 186 185
230 229 223 203 201 209 204 191 200 199 191 241 260 259 255 250 240 236 241 241 236 231 226 220 218 223 224 232 236 221 181 187 189
226 225 227 219 205 200 198 205 188 208 178 210 241 270 243 236 232 227 227 235 218 209 217 210 205 218 220 216 205 170 181 183 194
230 228 227 225 216 212 198 196 211 199 178 201 195 216 233 260 195 222 220 218 207 195 204 202 199 206 202 184 168 169 167 185 201
234 235 229 220 211 205 191 183 205 206 195 186 223 236 257 223 258 220 218 216 219 202 200 202 203 196 188 192 184 169 183 195 210
236 236 228 210 206 205 202 197 211 207 213 199 158 224 234 233 235 237 209 221 210 197 208 202 201 203 193 188 189 186 191 202 206